Weather History for KINF - February, 2012

Change the Weather History Date:

Sunday, February 19, 2012

  Actual Average (KOCF) Record (KOCF)
Temperature  
Mean Temperature 70 °F -  
Max Temperature 80 °F 71 °F 80 °F (2000)
Min Temperature 60 °F 46 °F 26 °F (2007)
Cooling Degree Days 5    
Growing Degree Days 20 (Base 50)    
Moisture  
Dew Point 62 °F    
Average Humidity 79    
Maximum Humidity 100    
Minimum Humidity 65    
Precipitation  
Precipitation 0.00 in - - ()
Sea Level Pressure  
Sea Level Pressure 29.87 in    
Wind  
Wind Speed 7 mph ()    
Max Wind Speed 18 mph    
Max Gust Speed 32 mph    
Visibility 10.0 miles    
Events      
Averages and records for this station are not official NWS values.
T = Trace of Precipitation, MM = Missing Value Source: Averaged Metar Reports

Daily Weather History Graph

Daily Weather History Graph

Search for Another Location

Airport or City:

Trip Planner

Search our weather history database for the weather conditions in past years. The results will help you decide how hot, cold, wet, or windy it might be!

Date:

Astronomy

Feb. 19, 2012 Rise Set
Actual Time 7:04 AM EST 6:21 PM EST
Civil Twilight 6:40 AM EST 6:46 PM EST
Nautical Twilight 6:13 AM EST 7:13 PM EST
Astronomical Twilight 5:45 AM EST 7:41 PM EST
Moon 5:16 AM EST (2/19) 4:27 PM EST (2/19)
Length of Visible Light 12h 05m
Length of Day
11h 17m
Waning Crescent, 5% of the Moon is Illuminated
Feb 19
Waning Crescent
Feb 21
New
Feb 29
First Quarter
Mar 8
Full
Mar 14
Last Quarter

Hourly Weather History & Observations

Time (EST) Temp. Heat Index Dew Point Humidity Pressure Visibility Wind Dir Wind Speed Gust Speed Precip Events Conditions
12:15 AM 64.4 °F - 62.6 °F 94% 29.91 in 10.0 mi Calm Calm - N/A   Clear
12:35 AM 64.4 °F - 62.6 °F 94% 29.91 in 10.0 mi SW 3.5 mph - N/A   Clear
12:55 AM 64.4 °F - 62.6 °F 94% 29.90 in 10.0 mi SSW 3.5 mph - N/A   Clear
1:15 AM 64.4 °F - 64.4 °F 100% 29.90 in 10.0 mi SSW 3.5 mph - N/A   Clear
1:35 AM 66.2 °F - 64.4 °F 94% 29.90 in 10.0 mi SSW 3.5 mph - N/A   Clear
1:55 AM 66.2 °F - 64.4 °F 94% 29.90 in 10.0 mi SSW 3.5 mph - N/A   Clear
2:15 AM 64.4 °F - 62.6 °F 94% 29.89 in 10.0 mi SSW 3.5 mph - N/A   Scattered Clouds
2:35 AM 64.4 °F - 64.4 °F 100% 29.88 in 10.0 mi South 3.5 mph - N/A   Mostly Cloudy
2:55 AM 68.0 °F - 64.4 °F 88% 29.88 in 10.0 mi SSW 5.8 mph - N/A   Overcast
3:15 AM 68.0 °F - 66.2 °F 94% 29.88 in 10.0 mi SSW 6.9 mph - N/A   Overcast
3:35 AM 68.0 °F - 66.2 °F 94% 29.86 in 10.0 mi South 8.1 mph - N/A   Overcast
4:15 AM 68.0 °F - 64.4 °F 88% 29.85 in 10.0 mi South 6.9 mph - N/A   Overcast
4:35 AM 68.0 °F - 64.4 °F 88% 29.85 in 10.0 mi South 11.5 mph - N/A   Overcast
4:55 AM 68.0 °F - 64.4 °F 88% 29.84 in 10.0 mi South 10.4 mph 17.3 mph N/A   Overcast
5:35 AM 68.0 °F - 66.2 °F 94% 29.84 in 10.0 mi South 9.2 mph - N/A   Overcast
5:55 AM 69.8 °F - 66.2 °F 88% 29.85 in 10.0 mi SSW 9.2 mph - N/A   Overcast
6:15 AM 69.8 °F - 66.2 °F 88% 29.85 in 10.0 mi South 10.4 mph - N/A   Overcast
6:35 AM 69.8 °F - 68.0 °F 94% 29.85 in 10.0 mi South 6.9 mph - N/A   Overcast
7:15 AM 69.8 °F - 68.0 °F 94% 29.85 in 10.0 mi SSW 11.5 mph 18.4 mph N/A   Overcast
7:35 AM 69.8 °F - 68.0 °F 94% 29.85 in 10.0 mi South 10.4 mph 16.1 mph N/A   Overcast
8:15 AM 71.6 °F - 68.0 °F 88% 29.85 in 10.0 mi South 11.5 mph 17.3 mph N/A   Overcast
8:35 AM 73.4 °F - 68.0 °F 83% 29.85 in 10.0 mi SSW 10.4 mph 16.1 mph N/A   Overcast
8:55 AM 73.4 °F - 68.0 °F 83% 29.85 in 10.0 mi SSW 9.2 mph 20.7 mph N/A   Overcast
9:15 AM 73.4 °F - 69.8 °F 88% 29.85 in 10.0 mi SSW 11.5 mph 19.6 mph N/A   Overcast
9:35 AM 77.0 °F - 68.0 °F 74% 29.85 in 10.0 mi South 18.4 mph 23.0 mph N/A   Overcast
9:55 AM 77.0 °F - 69.8 °F 78% 29.84 in 10.0 mi SW 10.4 mph 19.6 mph N/A   Overcast
10:15 AM 78.8 °F - 69.8 °F 74% 29.83 in 10.0 mi SSW 13.8 mph 20.7 mph N/A   Overcast
10:35 AM 78.8 °F - 69.8 °F 74% 29.84 in 10.0 mi SW 10.4 mph 18.4 mph N/A   Overcast
10:55 AM 78.8 °F - 68.0 °F 69% 29.84 in 10.0 mi SW 9.2 mph 25.3 mph N/A   Overcast
11:15 AM 80.6 °F 83.2 °F 68.0 °F 65% 29.84 in 10.0 mi SW 17.3 mph 27.6 mph N/A   Overcast
11:35 AM 78.8 °F - 68.0 °F 69% 29.84 in 10.0 mi SW 18.4 mph 32.2 mph N/A   Overcast
11:55 AM 78.8 °F - 68.0 °F 69% 29.84 in 10.0 mi SW 13.8 mph 29.9 mph N/A   Overcast
12:15 PM 78.8 °F - 68.0 °F 69% 29.84 in 10.0 mi SW 11.5 mph 31.1 mph N/A   Overcast
1:15 PM 75.2 °F - 68.0 °F 78% 29.83 in 7.0 mi WSW 9.2 mph 21.9 mph N/A   Overcast
1:35 PM 73.4 °F - 66.2 °F 78% 29.83 in 10.0 mi WSW 6.9 mph 24.2 mph N/A   Overcast
1:55 PM 73.4 °F - 64.4 °F 73% 29.82 in 10.0 mi West 8.1 mph 19.6 mph N/A   Overcast
2:15 PM 75.2 °F - 64.4 °F 69% 29.81 in 10.0 mi WSW 9.2 mph 19.6 mph N/A   Overcast
2:35 PM 73.4 °F - 64.4 °F 73% 29.81 in 10.0 mi WSW 6.9 mph 21.9 mph N/A   Overcast
2:55 PM 73.4 °F - 62.6 °F 69% 29.81 in 10.0 mi West 15.0 mph 24.2 mph N/A   Overcast
3:15 PM 73.4 °F - 60.8 °F 65% 29.81 in 10.0 mi WSW 8.1 mph 21.9 mph N/A   Overcast
3:35 PM 73.4 °F - 60.8 °F 65% 29.82 in 10.0 mi WSW 12.7 mph 21.9 mph N/A   Overcast
3:55 PM 71.6 °F - 60.8 °F 69% 29.83 in 10.0 mi West 11.5 mph 20.7 mph N/A   Overcast
4:15 PM 69.8 °F - 59.0 °F 68% 29.83 in 10.0 mi West 11.5 mph 23.0 mph N/A   Overcast
4:35 PM 69.8 °F - 59.0 °F 68% 29.83 in 10.0 mi West 8.1 mph 24.2 mph N/A   Overcast
4:55 PM 69.8 °F - 59.0 °F 68% 29.84 in 10.0 mi West 10.4 mph 23.0 mph N/A   Overcast
5:15 PM 68.0 °F - 59.0 °F 73% 29.85 in 10.0 mi WSW 4.6 mph 20.7 mph N/A   Overcast
5:35 PM 68.0 °F - 57.2 °F 68% 29.85 in 10.0 mi West 6.9 mph 19.6 mph N/A   Overcast
5:55 PM 66.2 °F - 57.2 °F 73% 29.86 in 10.0 mi West 9.2 mph 17.3 mph N/A   Overcast
6:15 PM 66.2 °F - 57.2 °F 73% 29.87 in 10.0 mi West 9.2 mph - N/A   Overcast
6:35 PM 64.4 °F - 55.4 °F 73% 29.87 in 10.0 mi West 5.8 mph 21.9 mph N/A   Overcast
6:55 PM 64.4 °F - 55.4 °F 73% 29.88 in 10.0 mi WSW 9.2 mph - N/A   Overcast
7:15 PM 64.4 °F - 53.6 °F 68% 29.88 in 10.0 mi WSW 9.2 mph - N/A   Overcast
7:35 PM 64.4 °F - 53.6 °F 68% 29.88 in 10.0 mi West 8.1 mph - N/A   Overcast
7:55 PM 64.4 °F - 55.4 °F 73% 29.89 in 10.0 mi West 9.2 mph 16.1 mph N/A   Overcast
8:15 PM 64.4 °F - 55.4 °F 73% 29.90 in 10.0 mi West 6.9 mph 17.3 mph N/A   Overcast
8:35 PM 64.4 °F - 55.4 °F 73% 29.91 in 10.0 mi West 10.4 mph 19.6 mph N/A   Overcast
8:55 PM 64.4 °F - 53.6 °F 68% 29.92 in 10.0 mi West 8.1 mph - N/A   Overcast
9:15 PM 62.6 °F - 51.8 °F 68% 29.92 in 10.0 mi WSW 3.5 mph - N/A   Overcast
9:35 PM 62.6 °F - 53.6 °F 72% 29.94 in 10.0 mi West 5.8 mph - N/A   Overcast
9:55 PM 62.6 °F - 53.6 °F 72% 29.94 in 10.0 mi West 5.8 mph - N/A   Scattered Clouds
10:15 PM 62.6 °F - 53.6 °F 72% 29.94 in 10.0 mi West 4.6 mph - N/A   Clear
10:35 PM 60.8 °F - 53.6 °F 77% 29.95 in 10.0 mi West 3.5 mph - N/A   Clear
10:55 PM 60.8 °F - 53.6 °F 77% 29.95 in 10.0 mi Calm Calm - N/A   Clear
11:15 PM 60.8 °F - 53.6 °F 77% 29.95 in 10.0 mi Calm Calm - N/A   Clear
11:35 PM 60.8 °F - 53.6 °F 77% 29.95 in 10.0 mi Calm Calm - N/A   Clear
11:55 PM 60.8 °F - 53.6 °F 77% 29.96 in 10.0 mi West 3.5 mph - N/A   Clear